Location: Croisilles
(50.1998°N, 2.8793°E)
Time: 13:01:48
(UTC+00:00)

ERS-2 - Pass Details

Date: 21 January 2021
Orbit: 492 x 497 km, 98.6° (Epoch: 26 February)

Event Time Altitude Azimuth Distance (km) Brightness Sun altitude
Exits shadow 17:20:07 12° 58° (ENE) 1,595 4.0 -8.9°
Maximum altitude 17:22:04 16° 93° (E) 1,349 3.7 -9.2°
Drops below altitude 10° 17:24:24 10° 133° (SE) 1,687 4.5 -9.6°
Sets 17:27:05 0° 155° (SSE) 2,561 5.7 -10.0°
